{"data":{"norad_id":48330,"epoch":"2026-05-25T04:02:58.397280Z","epoch_age_seconds":60367,"freshness":"FRESH","line1":"1 48330U 21036BG  26145.16873145  .00150235  00000+0  48926-2 0  9999","line2":"2 48330  53.1590 105.7682 0001274  87.0262 273.0885 15.30791543279752","mean_motion":15.30791543,"eccentricity":0.0001274,"inclination_deg":53.159,"raan_deg":105.7682,"arg_perigee_deg":87.0262,"mean_anomaly_deg":273.0885,"bstar":0.0048926,"rev_number":27975,"period_min":94.068980625404,"perigee_km":472.57650533799,"apogee_km":474.32228955206,"semimajor_km":6851.586397445,"source":"CELESTRAK","updated_at":"2026-05-25T13:38:16.683283Z"}}